Location: Choisy
(48.7685°N, 2.4187°E)
Time: 23:45:45
(UTC+00:00)

Envisat - Pass Details

Date: 03 March 2024
Orbit: 762 x 764 km, 98.3° (Epoch: 12 April)

Event Time Altitude Azimuth Distance (km) Brightness Sun altitude
Rises 02:25:49 0° 23° (NNE) 3,241 7.0 -38.2°
Reaches altitude 10° 02:28:27 10° 35° (NE) 2,310 6.2 -37.8°
Enters shadow 02:31:23 24° 66° (ENE) 1,541 5.0 -37.5°
